Weather History for KMHT - March, 2013

Change the Weather History Date:

Wednesday, March 20, 2013

  Actual Average Record
Temperature  
Mean Temperature 31 °F -  
Max Temperature 37 °F 46 °F 80 °F (2012)
Min Temperature 25 °F 28 °F 0 °F (1967)
Degree Days  
Heating Degree Days 34    
Cooling Degree Days 0    
Moisture  
Dew Point 19 °F    
Average Humidity 64    
Maximum Humidity 88    
Minimum Humidity 46    
Precipitation  
Precipitation 0.01 in 0.18 in 1.05 in (1951)
Month to date precipitation 2.41  
Year to date precipitation 8.21  
Snow  
Snow 0.00 in - - ()
Month to date snowfall  
Since 1 July snowfall  
Snow Depth 10.00 in    
Sea Level Pressure  
Sea Level Pressure 29.76 in    
Wind  
Wind Speed 7 mph (WSW)    
Max Wind Speed 14 mph    
Max Gust Speed 28 mph    
Visibility 10 miles    
Events      
T = Trace of Precipitation, MM = Missing Value Source: NWS Daily Summary

Daily Weather History Graph

Daily Weather History Graph

Search for Another Location

Airport or City:

Trip Planner

Search our weather history database for the weather conditions in past years. The results will help you decide how hot, cold, wet, or windy it might be!

Date:

Astronomy

Mar. 20, 2013 Rise Set
Actual Time 6:48 AM EDT 6:58 PM EDT
Civil Twilight 6:20 AM EDT 7:26 PM EDT
Nautical Twilight 5:47 AM EDT 7:59 PM EDT
Astronomical Twilight 5:13 AM EDT 8:33 PM EDT
Moon 12:22 PM EDT (3/20) 2:34 AM EDT (3/20)
Length of Visible Light 13h 06m
Length of Day
12h 09m
First Quarter, 59% of the Moon is Illuminated
Mar 20
First Quarter
Mar 27
Full
Apr 3
Last Quarter
Apr 10
New
Apr 18
First Quarter

Hourly Weather History & Observations

Time (EDT) Temp. Windchill Dew Point Humidity Pressure Visibility Wind Dir Wind Speed Gust Speed Precip Events Conditions
12:53 AM 25.0 °F 16.3 °F 21.0 °F 85% 29.75 in 10.0 mi NNW 8.1 mph - 0.00 in   Overcast
1:53 AM 25.0 °F 20.7 °F 21.0 °F 85% 29.75 in 10.0 mi Variable 3.5 mph - 0.01 in   Overcast
2:53 AM 26.1 °F - 21.0 °F 81% 29.74 in 10.0 mi Calm Calm - N/A   Overcast
3:53 AM 25.0 °F - 21.9 °F 88% 29.73 in 10.0 mi Calm Calm - N/A   Overcast
4:53 AM 25.0 °F 20.7 °F 21.9 °F 88% 29.73 in 10.0 mi SSE 3.5 mph - N/A   Overcast
5:53 AM 27.0 °F - 21.9 °F 81% 29.74 in 10.0 mi Calm Calm - N/A   Overcast
6:53 AM 27.0 °F 20.5 °F 19.9 °F 75% 29.75 in 10.0 mi West 5.8 mph - N/A   Overcast
7:53 AM 27.0 °F 20.5 °F 19.0 °F 72% 29.75 in 10.0 mi West 5.8 mph - N/A   Mostly Cloudy
8:53 AM 28.9 °F 19.2 °F 19.0 °F 67% 29.75 in 10.0 mi West 11.5 mph 18.4 mph N/A   Scattered Clouds
9:53 AM 30.0 °F 22.4 °F 19.0 °F 64% 29.75 in 10.0 mi West 8.1 mph 19.6 mph N/A   Partly Cloudy
10:53 AM 32.0 °F 23.6 °F 19.0 °F 59% 29.75 in 10.0 mi West 10.4 mph 23.0 mph N/A   Mostly Cloudy
11:53 AM 32.0 °F 22.5 °F 18.0 °F 56% 29.76 in 10.0 mi West 12.7 mph 23.0 mph N/A   Mostly Cloudy
12:53 PM 34.0 °F 25.5 °F 19.0 °F 54% 29.75 in 9.0 mi West 11.5 mph 27.6 mph 0.00 in   Mostly Cloudy
1:53 PM 34.0 °F 25.0 °F 18.0 °F 52% 29.75 in 10.0 mi WSW 12.7 mph 24.2 mph N/A   Mostly Cloudy
2:53 PM 36.0 °F 27.1 °F 18.0 °F 48% 29.74 in 10.0 mi West 13.8 mph 24.2 mph N/A   Mostly Cloudy
3:53 PM 36.0 °F 27.1 °F 17.1 °F 46% 29.74 in 10.0 mi West 13.8 mph 23.0 mph N/A   Mostly Cloudy
4:53 PM 37.0 °F 29.3 °F 18.0 °F 46% 29.75 in 10.0 mi WSW 11.5 mph 20.7 mph N/A   Mostly Cloudy
5:53 PM 36.0 °F 28.0 °F 17.1 °F 46% 29.76 in 10.0 mi WSW 11.5 mph 20.7 mph N/A   Partly Cloudy
6:53 PM 35.1 °F 27.4 °F 16.0 °F 46% 29.78 in 10.0 mi West 10.4 mph 19.6 mph N/A   Partly Cloudy
7:53 PM 34.0 °F - 17.1 °F 50% 29.80 in 10.0 mi Calm Calm - N/A   Clear
8:53 PM 30.9 °F 26.2 °F 18.0 °F 59% 29.81 in 10.0 mi SSW 4.6 mph - N/A   Clear
9:53 PM 30.9 °F 25.2 °F 18.0 °F 59% 29.82 in 10.0 mi SSW 5.8 mph - N/A   Clear
10:53 PM 28.9 °F 22.8 °F 18.0 °F 64% 29.83 in 10.0 mi SSW 5.8 mph - N/A   Clear
11:53 PM 28.0 °F 20.8 °F 18.0 °F 66% 29.83 in 10.0 mi SSW 6.9 mph - N/A   Clear